Date String (YYYY-MM-DD hh:mm:ss) UTC,Instrument flags,Ambient pressure (hPa),Sample flow (lpm),Bypass flow (lpm),Sample temperature (°C),Ambient temperature (°C),ASC tube jacket temperature (°C),LED temperature (°C),Box temperature (°C),Sample RH (%),Span deviation,Mass concentration (μg/m³),Mass concentration (μg/m³),Mass concentration (μg/m³)
DateTimeUTC,F1_M11,P_M11,Q1_M11,Q2_M11,T1_M11,T2_M11,T3_M11,T4_M11,T5_M11,U1_M11,ZSPAN_M11,X0_M11,X2_M11,X1_M11
2022-01-27 18:00:00,,0835.0,5.00,0.00,22.4,22.1,00.0,31.3,24.2,13.2,0000.0,0005.26,0003.51,0003.37
2022-01-27 18:01:00,,0835.0,5.00,0.00,22.4,22.0,00.0,31.3,24.2,13.3,0000.0,0005.27,0003.49,0003.35
2022-01-27 18:02:00,,0835.0,5.00,0.00,22.4,22.0,00.0,31.3,24.1,13.3,0000.0,0005.45,0003.49,0003.32
2022-01-27 18:03:00,,0835.0,5.00,0.00,22.4,21.9,00.0,31.3,24.1,13.3,0000.0,0005.55,0003.48,0003.30
2022-01-27 18:04:00,,0835.1,5.01,0.00,22.4,21.8,00.0,31.3,24.1,13.4,0000.0,0005.63,0003.47,0003.29
2022-01-27 18:05:00,,0835.0,5.00,0.00,22.3,21.8,00.0,31.3,24.1,13.4,0000.0,0005.60,0003.44,0003.27
2022-01-27 18:06:00,,0835.0,5.00,0.00,22.3,21.7,00.0,31.3,24.0,13.5,0000.0,0005.56,0003.42,0003.23
2022-01-27 18:07:00,,0835.0,5.00,0.00,22.3,21.6,00.0,31.3,24.0,13.5,0000.0,0005.51,0003.39,0003.19
2022-01-27 18:08:00,,0835.1,5.00,0.00,22.3,21.6,00.0,31.2,23.9,13.3,0000.0,0005.31,0003.30,0003.09
2022-01-27 18:09:00,,0835.1,5.00,0.00,22.2,21.6,00.0,31.2,23.9,13.4,0000.0,0005.18,0003.22,0002.94
2022-01-27 18:10:00,,0835.1,5.00,0.00,22.3,22.0,00.0,31.3,24.0,13.4,0000.0,0004.76,0003.12,0002.76
2022-01-27 18:11:00,,0835.1,5.00,0.00,22.4,22.8,00.0,31.3,24.3,13.3,0000.0,0004.31,0002.91,0002.56
2022-01-27 18:12:00,,0835.1,4.98,0.00,22.5,23.4,00.0,31.4,24.5,13.0,0000.0,0004.14,0002.72,0002.36
2022-01-27 18:13:00,,0835.2,5.01,0.00,22.6,23.3,00.0,31.4,24.6,12.8,0000.0,0003.88,0002.57,0002.22
2022-01-27 18:14:00,,0835.2,5.00,0.00,22.6,23.0,00.0,31.4,24.5,12.9,0000.0,0003.65,0002.48,0002.16
2022-01-27 18:15:00,,0835.1,4.99,0.00,22.6,22.7,00.0,31.4,24.4,12.8,0000.0,0003.54,0002.37,0002.07
2022-01-27 18:16:00,,0835.2,5.01,0.00,22.6,22.4,00.0,31.4,24.3,12.5,0000.0,0003.35,0002.27,0001.96
2022-01-27 18:17:00,,0835.2,5.00,0.00,22.5,22.2,00.0,31.4,24.2,12.4,0000.0,0003.15,0002.12,0001.82
2022-01-27 18:18:00,,0835.1,5.00,0.00,22.5,22.0,00.0,31.4,24.2,12.2,0000.0,0002.84,0001.93,0001.66
2022-01-27 18:19:00,,0835.1,5.00,0.00,22.4,21.9,00.0,31.4,24.1,12.2,0000.0,0002.76,0001.83,0001.58
2022-01-27 18:20:00,,0835.1,4.99,0.00,22.4,21.8,00.0,31.4,24.1,12.1,0000.0,0002.74,0001.76,0001.49
2022-01-27 18:21:00,,0835.1,5.01,0.00,22.4,21.8,00.0,31.3,24.0,12.1,0000.0,0002.69,0001.72,0001.45
2022-01-27 18:22:00,,0835.2,5.00,0.00,22.3,21.7,00.0,31.3,24.0,12.0,0000.0,0002.78,0001.72,0001.41
2022-01-27 18:23:00,,0835.2,5.00,0.00,22.3,21.7,00.0,31.3,23.9,12.1,0000.0,0002.70,0001.69,0001.39
2022-01-27 18:24:00,,0835.2,4.99,0.00,22.3,22.2,00.0,31.3,24.1,12.2,0000.0,0002.51,0001.59,0001.32
2022-01-27 18:25:00,,0835.2,5.00,0.00,22.5,23.0,00.0,31.4,24.3,12.1,0000.0,0002.22,0001.40,0001.16
2022-01-27 18:26:00,,0835.2,5.00,0.00,22.6,23.5,00.0,31.4,24.6,12.0,0000.0,0001.99,0001.29,0001.07
2022-01-27 18:27:00,,0835.2,5.01,0.00,22.6,23.3,00.0,31.4,24.6,12.0,0000.0,0001.95,0001.25,0001.03
2022-01-27 18:28:00,,0835.2,5.00,0.00,22.6,23.0,00.0,31.5,24.5,12.0,0000.0,0002.97,0001.23,0001.01
2022-01-27 18:29:00,,0835.2,5.01,0.00,22.6,22.7,00.0,31.5,24.4,12.0,0000.0,0003.25,0001.24,0001.02
2022-01-27 18:30:00,,0835.2,4.98,0.00,22.6,22.5,00.0,31.5,24.4,12.0,0000.0,0003.27,0001.27,0001.04
2022-01-27 18:31:00,,0835.2,5.01,0.00,22.6,22.3,00.0,31.4,24.3,12.0,0000.0,0003.23,0001.29,0001.07
2022-01-27 18:32:00,,0835.2,5.00,0.00,22.5,22.1,00.0,31.4,24.2,12.1,0000.0,0003.20,0001.29,0001.08
2022-01-27 18:33:00,,0835.2,5.00,0.00,22.5,21.9,00.0,31.4,24.2,12.1,0000.0,0003.10,0001.26,0001.09
2022-01-27 18:34:00,,0835.2,5.00,0.00,22.4,21.8,00.0,31.4,24.1,12.1,0000.0,0003.18,0001.28,0001.10
2022-01-27 18:35:00,,0835.2,5.00,0.00,22.4,21.7,00.0,31.4,24.1,12.1,0000.0,0003.20,0001.29,0001.09
2022-01-27 18:36:00,,0835.2,4.99,0.00,22.4,21.7,00.0,31.4,24.0,12.1,0000.0,0003.25,0001.32,0001.10
2022-01-27 18:37:00,,0835.2,5.00,0.00,22.4,22.0,00.0,31.4,24.1,11.8,0000.0,0003.27,0001.31,0001.08
2022-01-27 18:38:00,,0835.3,5.00,0.00,22.5,22.9,00.0,31.4,24.3,11.5,0000.0,0003.25,0001.28,0001.05
2022-01-27 18:39:00,,0835.2,5.00,0.00,22.6,23.3,00.0,31.5,24.5,11.3,0000.0,0002.49,0001.28,0001.03
2022-01-27 18:40:00,,0835.2,4.99,0.00,22.7,23.1,00.0,31.5,24.5,11.1,0000.0,0002.09,0001.27,0001.00
2022-01-27 18:41:00,,0835.3,5.00,0.00,22.6,22.8,00.0,31.5,24.4,11.0,0000.0,0002.05,0001.25,0000.99
2022-01-27 18:42:00,,0835.2,5.00,0.00,22.6,22.5,00.0,31.5,24.4,11.1,0000.0,0002.03,0001.23,0000.96
2022-01-27 18:43:00,,0835.2,5.00,0.00,22.6,22.3,00.0,31.5,24.3,11.2,0000.0,0001.95,0001.19,0000.94
2022-01-27 18:44:00,,0835.2,5.00,0.00,22.5,22.1,00.0,31.5,24.2,11.2,0000.0,0001.97,0001.19,0000.92
2022-01-27 18:45:00,,0835.3,4.98,0.00,22.5,22.0,00.0,31.5,24.1,11.2,0000.0,0001.87,0001.15,0000.90
2022-01-27 18:46:00,,0835.2,5.00,0.00,22.5,21.9,00.0,31.4,24.1,11.3,0000.0,0001.83,0001.13,0000.89
2022-01-27 18:47:00,,0835.2,5.02,0.00,22.4,22.1,00.0,31.4,24.1,11.2,0000.0,0001.79,0001.09,0000.86
2022-01-27 18:48:00,,0835.3,5.00,0.00,22.6,22.9,00.0,31.5,24.4,11.3,0000.0,0001.75,0001.07,0000.86
2022-01-27 18:49:00,,0835.2,5.00,0.00,22.7,23.4,00.0,31.5,24.7,11.2,0000.0,0002.17,0001.08,0000.86
2022-01-27 18:50:00,,0835.3,5.00,0.00,22.8,23.2,00.0,31.5,24.7,11.1,0000.0,0002.66,0001.05,0000.86
2022-01-27 18:51:00,,0835.2,4.99,0.00,22.7,22.9,00.0,31.6,24.6,11.0,0000.0,0002.55,0001.01,0000.85
2022-01-27 18:52:00,,0835.2,5.01,0.00,22.7,22.7,00.0,31.6,24.5,11.1,0000.0,0002.58,0001.02,0000.84
2022-01-27 18:53:00,,0835.3,5.01,0.00,22.7,22.5,00.0,31.6,24.4,11.1,0000.0,0002.57,0001.01,0000.84
2022-01-27 18:54:00,,0835.2,5.00,0.00,22.7,22.3,00.0,31.6,24.4,11.1,0000.0,0002.66,0001.04,0000.84
2022-01-27 18:55:00,,0835.2,4.99,0.00,22.6,22.1,00.0,31.5,24.3,11.2,0000.0,0002.69,0001.05,0000.84
2022-01-27 18:56:00,,0835.2,5.00,0.00,22.6,22.0,00.0,31.5,24.2,11.2,0000.0,0002.77,0001.08,0000.85
2022-01-27 18:57:00,,0835.2,5.01,0.00,22.5,21.9,00.0,31.5,24.2,11.2,0000.0,0002.76,0001.07,0000.84
2022-01-27 18:58:00,,0835.2,5.01,0.00,22.5,21.8,00.0,31.5,24.1,11.2,0000.0,0002.73,0001.06,0000.85
2022-01-27 18:59:00,,0835.2,5.00,0.00,22.5,22.3,00.0,31.5,24.2,11.3,0000.0,0002.69,0001.05,0000.85
